Year,Month,Day,Hour,Minute,Value (Times are PST for temperature in C)
2017,04,11,00,00,4.10
2017,04,11,00,01,4.10
2017,04,11,00,02,4.10
2017,04,11,00,03,4.10
2017,04,11,00,04,4.10
2017,04,11,00,05,4.10
2017,04,11,00,06,4.10
2017,04,11,00,07,4.10
2017,04,11,00,08,4.10
2017,04,11,00,09,4.10
2017,04,11,00,10,4.10
2017,04,11,00,11,4.10
2017,04,11,00,12,4.00
2017,04,11,00,13,4.00
2017,04,11,00,14,4.00
2017,04,11,00,15,4.00
2017,04,11,00,16,4.00
2017,04,11,00,17,4.10
2017,04,11,00,18,4.10
2017,04,11,00,19,4.10
2017,04,11,00,20,4.10
2017,04,11,00,21,4.10
2017,04,11,00,22,4.10
2017,04,11,00,23,4.10
2017,04,11,00,24,4.10
2017,04,11,00,25,4.20
2017,04,11,00,26,4.20
2017,04,11,00,27,4.30
2017,04,11,00,28,4.30
2017,04,11,00,29,4.30
2017,04,11,00,30,4.30
2017,04,11,00,31,4.30
2017,04,11,00,32,4.30
2017,04,11,00,33,4.30
2017,04,11,00,34,4.30
2017,04,11,00,35,4.30
2017,04,11,00,36,4.30
2017,04,11,00,37,4.30
2017,04,11,00,38,4.30
2017,04,11,00,39,4.30
2017,04,11,00,40,4.30
2017,04,11,00,41,4.30
2017,04,11,00,42,4.20
2017,04,11,00,43,4.20
2017,04,11,00,44,4.20
2017,04,11,00,45,4.20
2017,04,11,00,46,4.20
2017,04,11,00,47,4.30
2017,04,11,00,48,4.30
2017,04,11,00,49,4.30
2017,04,11,00,50,4.30
2017,04,11,00,51,4.30
2017,04,11,00,52,4.30
2017,04,11,00,53,4.20
2017,04,11,00,54,4.20
2017,04,11,00,55,4.20
2017,04,11,00,56,4.20
2017,04,11,00,57,4.20
2017,04,11,00,58,4.10
2017,04,11,00,59,4.10
2017,04,11,01,00,4.00
2017,04,11,01,01,4.00
2017,04,11,01,02,3.90
2017,04,11,01,03,3.90
2017,04,11,01,04,3.80
2017,04,11,01,05,3.80
2017,04,11,01,06,3.70
2017,04,11,01,07,3.70
2017,04,11,01,08,3.70
2017,04,11,01,09,3.60
2017,04,11,01,10,3.60
2017,04,11,01,11,3.50
2017,04,11,01,12,3.50
2017,04,11,01,13,3.40
2017,04,11,01,14,3.40
2017,04,11,01,15,3.30
2017,04,11,01,16,3.30
2017,04,11,01,17,3.30
2017,04,11,01,18,3.30
2017,04,11,01,19,3.20
2017,04,11,01,20,3.20
2017,04,11,01,21,3.20
2017,04,11,01,22,3.20
2017,04,11,01,23,3.20
2017,04,11,01,24,3.20
2017,04,11,01,25,3.20
2017,04,11,01,26,3.30
2017,04,11,01,27,3.30
2017,04,11,01,28,3.40
2017,04,11,01,29,3.50
2017,04,11,01,30,3.60
2017,04,11,01,31,3.60
2017,04,11,01,32,3.70
2017,04,11,01,33,3.70
2017,04,11,01,34,3.70
2017,04,11,01,35,3.70
2017,04,11,01,36,3.70
2017,04,11,01,37,3.70
2017,04,11,01,38,3.70
2017,04,11,01,39,3.70
2017,04,11,01,40,3.80
2017,04,11,01,41,3.80
2017,04,11,01,42,3.90
2017,04,11,01,43,3.90
2017,04,11,01,44,3.90
2017,04,11,01,45,3.90
2017,04,11,01,46,3.90
2017,04,11,01,47,3.90
2017,04,11,01,48,3.90
2017,04,11,01,49,3.90
2017,04,11,01,50,3.80
2017,04,11,01,51,3.80
2017,04,11,01,52,3.80
2017,04,11,01,53,3.80
2017,04,11,01,54,3.70
2017,04,11,01,55,3.70
2017,04,11,01,56,3.70
2017,04,11,01,57,3.70
2017,04,11,01,58,3.60
2017,04,11,01,59,3.60
2017,04,11,02,00,3.50
2017,04,11,02,01,3.40
2017,04,11,02,02,3.30
2017,04,11,02,03,3.20
2017,04,11,02,04,3.10
2017,04,11,02,05,3.00
2017,04,11,02,06,2.90
2017,04,11,02,07,2.90
2017,04,11,02,08,2.80
2017,04,11,02,09,2.70
2017,04,11,02,10,2.70
2017,04,11,02,11,2.70
2017,04,11,02,12,2.70
2017,04,11,02,13,2.60
2017,04,11,02,14,2.60
2017,04,11,02,15,2.60
2017,04,11,02,16,2.60
2017,04,11,02,17,2.60
2017,04,11,02,18,2.60
2017,04,11,02,19,2.50
2017,04,11,02,20,2.60
2017,04,11,02,21,2.50
2017,04,11,02,22,2.50
2017,04,11,02,23,2.50
2017,04,11,02,24,2.60
2017,04,11,02,25,2.60
2017,04,11,02,26,2.60
2017,04,11,02,27,2.70
2017,04,11,02,28,2.70
2017,04,11,02,29,2.80
2017,04,11,02,30,3.00
2017,04,11,02,31,3.00
2017,04,11,02,32,3.10
2017,04,11,02,33,3.20
2017,04,11,02,34,3.30
2017,04,11,02,35,3.40
2017,04,11,02,36,3.40
2017,04,11,02,37,3.40
2017,04,11,02,38,3.50
2017,04,11,02,39,3.60
2017,04,11,02,40,3.60
2017,04,11,02,41,3.70
2017,04,11,02,42,3.70
2017,04,11,02,43,3.70
2017,04,11,02,44,3.80
2017,04,11,02,45,3.80
2017,04,11,02,46,3.80
2017,04,11,02,47,3.80
2017,04,11,02,48,3.80
2017,04,11,02,49,3.70
2017,04,11,02,50,3.70
2017,04,11,02,51,3.60
2017,04,11,02,52,3.60
2017,04,11,02,53,3.50
2017,04,11,02,54,3.50
2017,04,11,02,55,3.50
2017,04,11,02,56,3.40
2017,04,11,02,57,3.40
2017,04,11,02,58,3.40
2017,04,11,02,59,3.40
2017,04,11,03,00,3.40
2017,04,11,03,01,3.40
2017,04,11,03,02,3.40
2017,04,11,03,03,3.40
2017,04,11,03,04,3.40
2017,04,11,03,05,3.30
2017,04,11,03,06,3.30
2017,04,11,03,07,3.20
2017,04,11,03,08,3.20
2017,04,11,03,09,3.20
2017,04,11,03,10,3.10
2017,04,11,03,11,3.10
2017,04,11,03,12,3.10
2017,04,11,03,13,3.10
2017,04,11,03,14,3.10
2017,04,11,03,15,3.10
2017,04,11,03,16,3.10
2017,04,11,03,17,3.10
2017,04,11,03,18,3.10
2017,04,11,03,19,3.10
2017,04,11,03,20,3.10
2017,04,11,03,21,3.10
2017,04,11,03,22,3.10
2017,04,11,03,23,3.10
2017,04,11,03,24,3.10
2017,04,11,03,25,3.10
2017,04,11,03,26,3.10
2017,04,11,03,27,3.10
2017,04,11,03,28,3.10
2017,04,11,03,29,3.10
2017,04,11,03,30,3.10
2017,04,11,03,31,3.10
2017,04,11,03,32,3.10
2017,04,11,03,33,3.10
2017,04,11,03,34,3.10
2017,04,11,03,35,3.10
2017,04,11,03,36,3.00
2017,04,11,03,37,3.00
2017,04,11,03,38,3.00
2017,04,11,03,39,3.00
2017,04,11,03,40,3.00
2017,04,11,03,41,2.90
2017,04,11,03,42,2.90
2017,04,11,03,43,2.90
2017,04,11,03,44,2.90
2017,04,11,03,45,2.90
2017,04,11,03,46,2.90
2017,04,11,03,47,2.80
2017,04,11,03,48,2.80
2017,04,11,03,49,2.80
2017,04,11,03,50,2.80
2017,04,11,03,51,2.80
2017,04,11,03,52,2.80
2017,04,11,03,53,2.80
2017,04,11,03,54,2.80
2017,04,11,03,55,2.80
2017,04,11,03,56,2.80
2017,04,11,03,57,2.80
2017,04,11,03,58,2.80
2017,04,11,03,59,2.80
2017,04,11,04,00,2.80
2017,04,11,04,01,2.80
2017,04,11,04,02,2.80
2017,04,11,04,03,2.80
2017,04,11,04,04,2.80
2017,04,11,04,05,2.80
2017,04,11,04,06,2.90
2017,04,11,04,07,2.90
2017,04,11,04,08,2.90
2017,04,11,04,09,2.90
2017,04,11,04,10,2.90
2017,04,11,04,11,2.90
2017,04,11,04,12,2.90
2017,04,11,04,13,2.90
2017,04,11,04,14,2.90
2017,04,11,04,15,2.90
2017,04,11,04,16,2.90
2017,04,11,04,17,2.90
2017,04,11,04,18,2.80
2017,04,11,04,19,2.80
2017,04,11,04,20,2.80
2017,04,11,04,21,2.80
2017,04,11,04,22,2.80
2017,04,11,04,23,2.70
2017,04,11,04,24,2.70
2017,04,11,04,25,2.70
2017,04,11,04,26,2.70
2017,04,11,04,27,2.70
2017,04,11,04,28,2.70
2017,04,11,04,29,2.60
2017,04,11,04,30,2.60
2017,04,11,04,31,2.60
2017,04,11,04,32,2.60
2017,04,11,04,33,2.60
2017,04,11,04,34,2.60
2017,04,11,04,35,2.60
2017,04,11,04,36,2.50
2017,04,11,04,37,2.50
2017,04,11,04,38,2.40
2017,04,11,04,39,2.40
2017,04,11,04,40,2.40
2017,04,11,04,41,2.30
2017,04,11,04,42,2.30
2017,04,11,04,43,2.30
2017,04,11,04,44,2.30
2017,04,11,04,45,2.20
2017,04,11,04,46,2.20
2017,04,11,04,47,2.20
2017,04,11,04,48,2.20
2017,04,11,04,49,2.20
2017,04,11,04,50,2.30
2017,04,11,04,51,2.30
2017,04,11,04,52,2.30
2017,04,11,04,53,2.30
2017,04,11,04,54,2.30
2017,04,11,04,55,2.30
2017,04,11,04,56,2.30
2017,04,11,04,57,2.30
2017,04,11,04,58,2.30
2017,04,11,04,59,2.30
2017,04,11,05,00,2.30
2017,04,11,05,01,2.20
2017,04,11,05,02,2.20
2017,04,11,05,03,2.20
2017,04,11,05,04,2.10
2017,04,11,05,05,2.10
2017,04,11,05,06,2.10
2017,04,11,05,07,2.10
2017,04,11,05,08,2.10
2017,04,11,05,09,2.00
2017,04,11,05,10,2.00
2017,04,11,05,11,2.00
2017,04,11,05,12,2.00
2017,04,11,05,13,2.00
2017,04,11,05,14,2.00
2017,04,11,05,15,2.10
2017,04,11,05,16,2.00
2017,04,11,05,17,2.00
2017,04,11,05,18,2.00
2017,04,11,05,19,2.00
2017,04,11,05,20,2.00
2017,04,11,05,21,2.00
2017,04,11,05,22,2.00
2017,04,11,05,23,2.00
2017,04,11,05,24,2.00
2017,04,11,05,25,2.00
2017,04,11,05,26,2.00
2017,04,11,05,27,1.90
2017,04,11,05,28,1.90
2017,04,11,05,29,1.90
2017,04,11,05,30,1.90
2017,04,11,05,31,1.90
2017,04,11,05,32,1.90
2017,04,11,05,33,1.90
2017,04,11,05,34,1.80
2017,04,11,05,35,1.80
2017,04,11,05,36,1.80
2017,04,11,05,37,1.70
2017,04,11,05,38,1.70
2017,04,11,05,39,1.70
2017,04,11,05,40,1.60
2017,04,11,05,41,1.60
2017,04,11,05,42,1.60
2017,04,11,05,43,1.50
2017,04,11,05,44,1.50
2017,04,11,05,45,1.50
2017,04,11,05,46,1.50
2017,04,11,05,47,1.50
2017,04,11,05,48,1.50
2017,04,11,05,49,1.50
2017,04,11,05,50,1.50
2017,04,11,05,51,1.50
2017,04,11,05,52,1.50
2017,04,11,05,53,1.50
2017,04,11,05,54,1.50
2017,04,11,05,55,1.50
2017,04,11,05,56,1.60
2017,04,11,05,57,1.60
2017,04,11,05,58,1.60
2017,04,11,05,59,1.70
2017,04,11,06,00,1.70
2017,04,11,06,01,1.70
2017,04,11,06,02,1.70
2017,04,11,06,03,1.60
2017,04,11,06,04,1.60
2017,04,11,06,05,1.60
2017,04,11,06,06,1.60
2017,04,11,06,07,1.60
2017,04,11,06,08,1.60
2017,04,11,06,09,1.60
2017,04,11,06,10,1.60
2017,04,11,06,11,1.60
2017,04,11,06,12,1.60
2017,04,11,06,13,1.50
2017,04,11,06,14,1.50
2017,04,11,06,15,1.50
2017,04,11,06,16,1.50
2017,04,11,06,17,1.50
2017,04,11,06,18,1.50
2017,04,11,06,19,1.40
2017,04,11,06,20,1.40
2017,04,11,06,21,1.40
2017,04,11,06,22,1.40
2017,04,11,06,23,1.40
2017,04,11,06,24,1.40
2017,04,11,06,25,1.40
2017,04,11,06,26,1.30
2017,04,11,06,27,1.30
2017,04,11,06,28,1.30
2017,04,11,06,29,1.30
2017,04,11,06,30,1.30
2017,04,11,06,31,1.30
2017,04,11,06,32,1.30
2017,04,11,06,33,1.30
2017,04,11,06,34,1.30
2017,04,11,06,35,1.30
2017,04,11,06,36,1.30
2017,04,11,06,37,1.30
2017,04,11,06,38,1.20
2017,04,11,06,39,1.20
2017,04,11,06,40,1.20
2017,04,11,06,41,1.20
2017,04,11,06,42,1.10
2017,04,11,06,43,1.10
2017,04,11,06,44,1.10
2017,04,11,06,45,1.10
2017,04,11,06,46,1.10
2017,04,11,06,47,1.10
2017,04,11,06,48,1.10
2017,04,11,06,49,1.10
2017,04,11,06,50,1.10
2017,04,11,06,51,1.10
2017,04,11,06,52,1.10
2017,04,11,06,53,1.10
2017,04,11,06,54,1.10
2017,04,11,06,55,1.10
2017,04,11,06,56,1.10
2017,04,11,06,57,1.10
2017,04,11,06,58,1.10
2017,04,11,06,59,1.10
2017,04,11,07,00,1.10
2017,04,11,07,01,1.10
2017,04,11,07,02,1.10
2017,04,11,07,03,1.10
2017,04,11,07,04,1.10
2017,04,11,07,05,1.10
2017,04,11,07,06,1.10
2017,04,11,07,07,1.10
2017,04,11,07,08,1.10
2017,04,11,07,09,1.10
2017,04,11,07,10,1.10
2017,04,11,07,11,1.10
2017,04,11,07,12,1.10
2017,04,11,07,13,1.10
2017,04,11,07,14,1.10
2017,04,11,07,15,1.10
2017,04,11,07,16,1.20
2017,04,11,07,17,1.20
2017,04,11,07,18,1.20
2017,04,11,07,19,1.20
2017,04,11,07,20,1.20
2017,04,11,07,21,1.30
2017,04,11,07,22,1.30
2017,04,11,07,23,1.30
2017,04,11,07,24,1.30
2017,04,11,07,25,1.30
2017,04,11,07,26,1.30
2017,04,11,07,27,1.40
2017,04,11,07,28,1.40
2017,04,11,07,29,1.40
2017,04,11,07,30,1.40
2017,04,11,07,31,1.50
2017,04,11,07,32,1.50
2017,04,11,07,33,1.50
2017,04,11,07,34,1.60
2017,04,11,07,35,1.60
2017,04,11,07,36,1.60
2017,04,11,07,37,1.70
2017,04,11,07,38,1.70
2017,04,11,07,39,1.70
2017,04,11,07,40,1.70
2017,04,11,07,41,1.70
2017,04,11,07,42,1.80
2017,04,11,07,43,1.80
2017,04,11,07,44,1.80
2017,04,11,07,45,1.80
2017,04,11,07,46,1.80
2017,04,11,07,47,1.90
2017,04,11,07,48,1.90
2017,04,11,07,49,1.90
2017,04,11,07,50,1.90
2017,04,11,07,51,2.00
2017,04,11,07,52,2.00
2017,04,11,07,53,2.00
2017,04,11,07,54,2.10
2017,04,11,07,55,2.10
2017,04,11,07,56,2.10
2017,04,11,07,57,2.10
2017,04,11,07,58,2.20
2017,04,11,07,59,2.20
2017,04,11,08,00,2.20
2017,04,11,08,01,2.20
2017,04,11,08,02,2.20
2017,04,11,08,03,2.30
2017,04,11,08,04,2.30
2017,04,11,08,05,2.30
2017,04,11,08,06,2.30
2017,04,11,08,07,2.40
2017,04,11,08,08,2.40
2017,04,11,08,09,2.40
2017,04,11,08,10,2.40
2017,04,11,08,11,2.50
2017,04,11,08,12,2.50
2017,04,11,08,13,2.60
2017,04,11,08,14,2.60
2017,04,11,08,15,2.60
2017,04,11,08,16,2.70
2017,04,11,08,17,2.70
2017,04,11,08,18,2.70
2017,04,11,08,19,2.80
2017,04,11,08,20,2.80
2017,04,11,08,21,2.90
2017,04,11,08,22,2.90
2017,04,11,08,23,3.00
2017,04,11,08,24,3.00
2017,04,11,08,25,3.00
2017,04,11,08,26,3.10
2017,04,11,08,27,3.10
2017,04,11,08,28,3.10
2017,04,11,08,29,3.10
2017,04,11,08,30,3.10
2017,04,11,08,31,3.10
2017,04,11,08,32,3.20
2017,04,11,08,33,3.20
2017,04,11,08,34,3.20
2017,04,11,08,35,3.30
2017,04,11,08,36,3.30
2017,04,11,08,37,3.30
2017,04,11,08,38,3.40
2017,04,11,08,39,3.40
2017,04,11,08,40,3.50
2017,04,11,08,41,3.50
2017,04,11,08,42,3.60
2017,04,11,08,43,3.60
2017,04,11,08,44,3.70
2017,04,11,08,45,3.70
2017,04,11,08,46,3.80
2017,04,11,08,47,3.80
2017,04,11,08,48,3.90
2017,04,11,08,49,3.90
2017,04,11,08,50,4.00
2017,04,11,08,51,4.00
2017,04,11,08,52,4.10
2017,04,11,08,53,4.10
2017,04,11,08,54,4.20
2017,04,11,08,55,4.30
2017,04,11,08,56,4.30
2017,04,11,08,57,4.40
2017,04,11,08,58,4.50
2017,04,11,08,59,4.50
2017,04,11,09,00,4.60
2017,04,11,09,01,4.70
2017,04,11,09,02,4.70
2017,04,11,09,03,4.80
2017,04,11,09,04,4.90
2017,04,11,09,05,5.00
2017,04,11,09,06,5.00
2017,04,11,09,07,5.10
2017,04,11,09,08,5.20
2017,04,11,09,09,5.30
2017,04,11,09,10,5.30
2017,04,11,09,11,5.30
2017,04,11,09,12,5.40
2017,04,11,09,13,5.40
2017,04,11,09,14,5.40
2017,04,11,09,15,5.50
2017,04,11,09,16,5.50
2017,04,11,09,17,5.60
2017,04,11,09,18,5.60
2017,04,11,09,19,5.70
2017,04,11,09,20,5.70
2017,04,11,09,21,5.80
2017,04,11,09,22,5.80
2017,04,11,09,23,5.90
2017,04,11,09,24,5.90
2017,04,11,09,25,5.90
2017,04,11,09,26,5.90
2017,04,11,09,27,5.90
2017,04,11,09,28,5.90
2017,04,11,09,29,5.90
2017,04,11,09,30,5.90
2017,04,11,09,31,5.90
2017,04,11,09,32,5.90
2017,04,11,09,33,5.90
2017,04,11,09,34,6.00
2017,04,11,09,35,6.00
2017,04,11,09,36,6.10
2017,04,11,09,37,6.10
2017,04,11,09,38,6.20
2017,04,11,09,39,6.20
2017,04,11,09,40,6.30
2017,04,11,09,41,6.30
2017,04,11,09,42,6.40
2017,04,11,09,43,6.50
2017,04,11,09,44,6.50
2017,04,11,09,45,6.60
2017,04,11,09,46,6.70
2017,04,11,09,47,6.70
2017,04,11,09,48,6.80
2017,04,11,09,49,6.80
2017,04,11,09,50,6.90
2017,04,11,09,51,6.90
2017,04,11,09,52,7.00
2017,04,11,09,53,7.00
2017,04,11,09,54,7.10
2017,04,11,09,55,7.10
2017,04,11,09,56,7.10
2017,04,11,09,57,7.10
2017,04,11,09,58,7.10
2017,04,11,09,59,7.10
2017,04,11,10,00,7.10
2017,04,11,10,01,7.10
2017,04,11,10,02,7.10
2017,04,11,10,03,7.10
2017,04,11,10,04,7.10
2017,04,11,10,05,7.10
2017,04,11,10,06,7.10
2017,04,11,10,07,7.10
2017,04,11,10,08,7.10
2017,04,11,10,09,7.10
2017,04,11,10,10,7.10
2017,04,11,10,11,7.10
2017,04,11,10,12,7.10
2017,04,11,10,13,7.10
2017,04,11,10,14,7.10
2017,04,11,10,15,7.20
2017,04,11,10,16,7.20
2017,04,11,10,17,7.20
2017,04,11,10,18,7.20
2017,04,11,10,19,7.10
2017,04,11,10,20,7.10
2017,04,11,10,21,7.10
2017,04,11,10,22,7.10
2017,04,11,10,23,7.10
2017,04,11,10,24,7.20
2017,04,11,10,25,7.20
2017,04,11,10,26,7.10
2017,04,11,10,27,7.10
2017,04,11,10,28,7.10
2017,04,11,10,29,7.10
2017,04,11,10,30,7.10
2017,04,11,10,31,7.10
2017,04,11,10,32,7.10
2017,04,11,10,33,7.10
2017,04,11,10,34,7.20
2017,04,11,10,35,7.20
2017,04,11,10,36,7.20
2017,04,11,10,37,7.30
2017,04,11,10,38,7.30
2017,04,11,10,39,7.30
2017,04,11,10,40,7.30
2017,04,11,10,41,7.30
2017,04,11,10,42,7.30
2017,04,11,10,43,7.30
2017,04,11,10,44,7.30
2017,04,11,10,45,7.30
2017,04,11,10,46,7.30
2017,04,11,10,47,7.30
2017,04,11,10,48,7.20
2017,04,11,10,49,7.20
2017,04,11,10,50,7.20
2017,04,11,10,51,7.20
2017,04,11,10,52,7.30
2017,04,11,10,53,7.30
2017,04,11,10,54,7.30
2017,04,11,10,55,7.30
2017,04,11,10,56,7.40
2017,04,11,10,57,7.40
2017,04,11,10,58,7.40
2017,04,11,10,59,7.40
2017,04,11,11,00,7.40
2017,04,11,11,01,7.50
2017,04,11,11,02,7.50
2017,04,11,11,03,7.50
2017,04,11,11,04,7.60
2017,04,11,11,05,7.60
2017,04,11,11,06,7.60
2017,04,11,11,07,7.70
2017,04,11,11,08,7.70
2017,04,11,11,09,7.80
2017,04,11,11,10,7.80
2017,04,11,11,11,7.80
2017,04,11,11,12,7.80
2017,04,11,11,13,7.80
2017,04,11,11,14,7.80
2017,04,11,11,15,7.90
2017,04,11,11,16,7.90
2017,04,11,11,17,7.90
2017,04,11,11,18,7.90
2017,04,11,11,19,7.90
2017,04,11,11,20,7.90
2017,04,11,11,21,7.90
2017,04,11,11,22,7.90
2017,04,11,11,23,7.90
2017,04,11,11,24,7.90
2017,04,11,11,25,7.90
2017,04,11,11,26,7.80
2017,04,11,11,27,7.80
2017,04,11,11,28,7.80
2017,04,11,11,29,7.80
2017,04,11,11,30,7.80
2017,04,11,11,31,7.80
2017,04,11,11,32,7.70
2017,04,11,11,33,7.70
2017,04,11,11,34,7.70
2017,04,11,11,35,7.70
2017,04,11,11,36,7.80
2017,04,11,11,37,7.80
2017,04,11,11,38,7.80
2017,04,11,11,39,7.80
2017,04,11,11,40,7.80
2017,04,11,11,41,7.80
2017,04,11,11,42,7.80
2017,04,11,11,43,7.80
2017,04,11,11,44,7.80
2017,04,11,11,45,7.80
2017,04,11,11,46,7.80
2017,04,11,11,47,7.80
2017,04,11,11,48,7.80
2017,04,11,11,49,7.90
2017,04,11,11,50,7.90
2017,04,11,11,51,7.90
2017,04,11,11,52,7.90
2017,04,11,11,53,7.90
2017,04,11,11,54,7.90
2017,04,11,11,55,7.90
2017,04,11,11,56,7.90
2017,04,11,11,57,7.90
2017,04,11,11,58,7.90
2017,04,11,11,59,7.90
2017,04,11,12,00,8.00
2017,04,11,12,01,8.00
2017,04,11,12,02,8.00
2017,04,11,12,03,8.00
2017,04,11,12,04,8.00
2017,04,11,12,05,8.00
2017,04,11,12,06,8.00
2017,04,11,12,07,8.10
2017,04,11,12,08,8.10
2017,04,11,12,09,8.20
2017,04,11,12,10,8.20
2017,04,11,12,11,8.30
2017,04,11,12,12,8.40
2017,04,11,12,13,8.40
2017,04,11,12,14,8.50
2017,04,11,12,15,8.50
2017,04,11,12,16,8.60
2017,04,11,12,17,8.60
2017,04,11,12,18,8.50
2017,04,11,12,19,8.50
2017,04,11,12,20,8.50
2017,04,11,12,21,8.50
2017,04,11,12,22,8.50
2017,04,11,12,23,8.50
2017,04,11,12,24,8.60
2017,04,11,12,25,8.60
2017,04,11,12,26,8.60
2017,04,11,12,27,8.70
2017,04,11,12,28,8.70
2017,04,11,12,29,8.80
2017,04,11,12,30,8.80
2017,04,11,12,31,8.80
2017,04,11,12,32,8.90
2017,04,11,12,33,8.90
2017,04,11,12,34,9.00
2017,04,11,12,35,9.10
2017,04,11,12,36,9.20
2017,04,11,12,37,9.20
2017,04,11,12,38,9.30
2017,04,11,12,39,9.30
2017,04,11,12,40,9.30
2017,04,11,12,41,9.30
2017,04,11,12,42,9.30
2017,04,11,12,43,9.30
2017,04,11,12,44,9.30
2017,04,11,12,45,9.30
2017,04,11,12,46,9.30
2017,04,11,12,47,9.30
2017,04,11,12,48,9.40
2017,04,11,12,49,9.40
2017,04,11,12,50,9.40
2017,04,11,12,51,9.50
2017,04,11,12,52,9.50
2017,04,11,12,53,9.60
2017,04,11,12,54,9.60
2017,04,11,12,55,9.70
2017,04,11,12,56,9.70
2017,04,11,12,57,9.70
2017,04,11,12,58,9.70
2017,04,11,12,59,9.70
2017,04,11,13,00,9.70
2017,04,11,13,01,9.80
2017,04,11,13,02,9.80
2017,04,11,13,03,9.80
2017,04,11,13,04,9.80
2017,04,11,13,05,9.90
2017,04,11,13,06,9.90
2017,04,11,13,07,9.90
2017,04,11,13,08,10.00
2017,04,11,13,09,10.00
2017,04,11,13,10,10.00
2017,04,11,13,11,10.10
2017,04,11,13,12,10.10
2017,04,11,13,13,10.10
2017,04,11,13,14,10.10
2017,04,11,13,15,10.10
2017,04,11,13,16,10.10
2017,04,11,13,17,10.10
2017,04,11,13,18,10.10
2017,04,11,13,19,10.00
2017,04,11,13,20,9.90
2017,04,11,13,21,9.90
2017,04,11,13,22,9.90
2017,04,11,13,23,9.90
2017,04,11,13,24,9.80
2017,04,11,13,25,9.80
2017,04,11,13,26,9.80
2017,04,11,13,27,9.80
2017,04,11,13,28,9.80
2017,04,11,13,29,9.80
2017,04,11,13,30,9.80
2017,04,11,13,31,9.80
2017,04,11,13,32,9.80
2017,04,11,13,33,9.90
2017,04,11,13,34,9.90
2017,04,11,13,35,9.90
2017,04,11,13,36,9.90
2017,04,11,13,37,9.90
2017,04,11,13,38,9.90
2017,04,11,13,39,9.80
2017,04,11,13,40,9.80
2017,04,11,13,41,9.80
2017,04,11,13,42,9.80
2017,04,11,13,43,9.80
2017,04,11,13,44,9.80
2017,04,11,13,45,9.90
2017,04,11,13,46,9.90
2017,04,11,13,47,9.90
2017,04,11,13,48,9.90
2017,04,11,13,49,9.90
2017,04,11,13,50,9.90
2017,04,11,13,51,9.90
2017,04,11,13,52,10.00
2017,04,11,13,53,10.00
2017,04,11,13,54,10.00
2017,04,11,13,55,10.10
2017,04,11,13,56,10.10
2017,04,11,13,57,10.10
2017,04,11,13,58,10.10
2017,04,11,13,59,10.10
2017,04,11,14,00,10.20
2017,04,11,14,01,10.20
2017,04,11,14,02,10.20
2017,04,11,14,03,10.20
2017,04,11,14,04,10.20
2017,04,11,14,05,10.20
2017,04,11,14,06,10.30
2017,04,11,14,07,10.30
2017,04,11,14,08,10.30
2017,04,11,14,09,10.30
2017,04,11,14,10,10.30
2017,04,11,14,11,10.30
2017,04,11,14,12,10.30
2017,04,11,14,13,10.30
2017,04,11,14,14,10.30
2017,04,11,14,15,10.30
2017,04,11,14,16,10.30
2017,04,11,14,17,10.30
2017,04,11,14,18,10.30
2017,04,11,14,19,10.30
2017,04,11,14,20,10.20
2017,04,11,14,21,10.20
2017,04,11,14,22,10.20
2017,04,11,14,23,10.20
2017,04,11,14,24,10.10
2017,04,11,14,25,10.10
2017,04,11,14,26,10.10
2017,04,11,14,27,10.20
2017,04,11,14,28,10.20
2017,04,11,14,29,10.20
2017,04,11,14,30,10.20
2017,04,11,14,31,10.30
2017,04,11,14,32,10.30
2017,04,11,14,33,10.30
2017,04,11,14,34,10.30
2017,04,11,14,35,10.30
2017,04,11,14,36,10.30
2017,04,11,14,37,10.30
2017,04,11,14,38,10.30
2017,04,11,14,39,10.30
2017,04,11,14,40,10.30
2017,04,11,14,41,10.30
2017,04,11,14,42,10.30
2017,04,11,14,43,10.40
2017,04,11,14,44,10.40
2017,04,11,14,45,10.40
2017,04,11,14,46,10.40
2017,04,11,14,47,10.50
2017,04,11,14,48,10.50
2017,04,11,14,49,10.60
2017,04,11,14,50,10.60
2017,04,11,14,51,10.60
2017,04,11,14,52,10.70
2017,04,11,14,53,10.70
2017,04,11,14,54,10.70
2017,04,11,14,55,10.70
2017,04,11,14,56,10.70
2017,04,11,14,57,10.70
2017,04,11,14,58,10.70
2017,04,11,14,59,10.70
2017,04,11,15,00,10.70
2017,04,11,15,01,10.70
2017,04,11,15,02,10.70
2017,04,11,15,03,10.70
2017,04,11,15,04,10.70
2017,04,11,15,05,10.70
2017,04,11,15,06,10.80
2017,04,11,15,07,10.80
2017,04,11,15,08,10.80
2017,04,11,15,09,10.80
2017,04,11,15,10,10.80
2017,04,11,15,11,10.80
2017,04,11,15,12,10.80
2017,04,11,15,13,10.80
2017,04,11,15,14,10.80
2017,04,11,15,15,10.80
2017,04,11,15,16,10.80
2017,04,11,15,17,10.80
2017,04,11,15,18,10.80
2017,04,11,15,19,10.80
2017,04,11,15,20,10.80
2017,04,11,15,21,10.80
2017,04,11,15,22,10.80
2017,04,11,15,23,10.80
2017,04,11,15,24,10.80
2017,04,11,15,25,10.80
2017,04,11,15,26,10.80
2017,04,11,15,27,10.80
2017,04,11,15,28,10.80
2017,04,11,15,29,10.80
2017,04,11,15,30,10.80
2017,04,11,15,31,10.80
2017,04,11,15,32,10.80
2017,04,11,15,33,10.80
2017,04,11,15,34,10.80
2017,04,11,15,35,10.80
2017,04,11,15,36,10.80
2017,04,11,15,37,10.80
2017,04,11,15,38,10.80
2017,04,11,15,39,10.80
2017,04,11,15,40,10.90
2017,04,11,15,41,10.90
2017,04,11,15,42,10.90
2017,04,11,15,43,10.90
2017,04,11,15,44,10.80
2017,04,11,15,45,10.80
2017,04,11,15,46,10.90
2017,04,11,15,47,10.90
2017,04,11,15,48,10.90
2017,04,11,15,49,10.90
2017,04,11,15,50,10.90
2017,04,11,15,51,10.90
2017,04,11,15,52,10.90
2017,04,11,15,53,10.90
2017,04,11,15,54,11.00
2017,04,11,15,55,11.00
2017,04,11,15,56,11.00
2017,04,11,15,57,11.00
2017,04,11,15,58,11.10
2017,04,11,15,59,11.10
2017,04,11,16,00,11.10
2017,04,11,16,01,11.10
2017,04,11,16,02,11.20
2017,04,11,16,03,11.20
2017,04,11,16,04,11.20
2017,04,11,16,05,11.30
2017,04,11,16,06,11.30
2017,04,11,16,07,11.30
2017,04,11,16,08,11.40
2017,04,11,16,09,11.40
2017,04,11,16,10,11.40
2017,04,11,16,11,11.40
2017,04,11,16,12,11.40
2017,04,11,16,13,11.40
2017,04,11,16,14,11.50
2017,04,11,16,15,11.50
2017,04,11,16,16,11.50
2017,04,11,16,17,11.50
2017,04,11,16,18,11.50
2017,04,11,16,19,11.50
2017,04,11,16,20,11.50
2017,04,11,16,21,11.50
2017,04,11,16,22,11.50
2017,04,11,16,23,11.50
2017,04,11,16,24,11.50
2017,04,11,16,25,11.60
2017,04,11,16,26,11.60
2017,04,11,16,27,11.60
2017,04,11,16,28,11.60
2017,04,11,16,29,11.60
2017,04,11,16,30,11.60
2017,04,11,16,31,11.70
2017,04,11,16,32,11.70
2017,04,11,16,33,11.70
2017,04,11,16,34,11.70
2017,04,11,16,35,11.80
2017,04,11,16,36,11.80
2017,04,11,16,37,11.70
2017,04,11,16,38,11.70
2017,04,11,16,39,11.70
2017,04,11,16,40,11.80
2017,04,11,16,41,11.70
2017,04,11,16,42,11.70
2017,04,11,16,43,11.70
2017,04,11,16,44,11.70
2017,04,11,16,45,11.70
2017,04,11,16,46,11.70
2017,04,11,16,47,11.70
2017,04,11,16,48,11.60
2017,04,11,16,49,11.60
2017,04,11,16,50,11.60
2017,04,11,16,51,11.60
2017,04,11,16,52,11.60
2017,04,11,16,53,11.60
2017,04,11,16,54,11.60
2017,04,11,16,55,11.60
2017,04,11,16,56,11.60
2017,04,11,16,57,11.60
2017,04,11,16,58,11.60
2017,04,11,16,59,11.60
2017,04,11,17,00,11.60
2017,04,11,17,01,11.60
2017,04,11,17,02,11.60
2017,04,11,17,03,11.60
2017,04,11,17,04,11.60
2017,04,11,17,05,11.70
2017,04,11,17,06,11.70
2017,04,11,17,07,11.70
2017,04,11,17,08,11.70
2017,04,11,17,09,11.70
2017,04,11,17,10,11.70
2017,04,11,17,11,11.60
2017,04,11,17,12,11.60
2017,04,11,17,13,11.60
2017,04,11,17,14,11.50
2017,04,11,17,15,11.50
2017,04,11,17,16,11.50
2017,04,11,17,17,11.50
2017,04,11,17,18,11.50
2017,04,11,17,19,11.50
2017,04,11,17,20,11.50
2017,04,11,17,21,11.50
2017,04,11,17,22,11.40
2017,04,11,17,23,11.40
2017,04,11,17,24,11.40
2017,04,11,17,25,11.50
2017,04,11,17,26,11.50
2017,04,11,17,27,11.50
2017,04,11,17,28,11.50
2017,04,11,17,29,11.50
2017,04,11,17,30,11.50
2017,04,11,17,31,11.50
2017,04,11,17,32,11.50
2017,04,11,17,33,11.50
2017,04,11,17,34,11.50
2017,04,11,17,35,11.50
2017,04,11,17,36,11.50
2017,04,11,17,37,11.50
2017,04,11,17,38,11.40
2017,04,11,17,39,11.40
2017,04,11,17,40,11.40
2017,04,11,17,41,11.40
2017,04,11,17,42,11.40
2017,04,11,17,43,11.40
2017,04,11,17,44,11.40
2017,04,11,17,45,11.40
2017,04,11,17,46,11.40
2017,04,11,17,47,11.40
2017,04,11,17,48,11.40
2017,04,11,17,49,11.40
2017,04,11,17,50,11.40
2017,04,11,17,51,11.40
2017,04,11,17,52,11.40
2017,04,11,17,53,11.40
2017,04,11,17,54,11.30
2017,04,11,17,55,11.40